Location: Houston
(29.7631°N, 95.3631°W)
Time: 23:22:18
(UTC-06:00)

DX 1 - Pass Details

Date: 19 November 2019
Orbit: 619 x 631 km, 98.4° (Epoch: 14 December)

Event Time Altitude Azimuth Distance (km) Brightness Sun altitude
Rises 04:24:06 0° 166° (SSE) 2,893 ? -31.3°
Reaches altitude 10° 04:26:17 10° 166° (SSE) 1,988 ? -30.9°
Enters shadow 04:26:22 11° 166° (SSE) 1,948 ? -30.8°
